Powrót do katalogu

DELTA 1 DEB

AktywnyPO
NORAD 21686·DEBRIS·🇺🇸 United States

Wystrzelony Jun 12, 1975 z Vandenberg Space Force Base

Loading…

Następne Przeloty (najbliższe 24 godziny)

TLE

ŚwieżeSource: Space-Track

Epoka: Sep 14, 2026, 07:35 UTC

1 21686U 75052JN  26257.31613390  .00003692  00000-0  14861-2 0  9992
2 21686  99.9934 294.0272 0137230  55.9612 305.4506 14.23784735767500

Śledź DELTA 1 DEB w czasie rzeczywistym z AllMySat

Download on the App Store